| time (UTC) | temp F | wind direction | speed knots | gust knots | rain 1hr in | rain 24hr in | rain mn in | humidity % | barometer mb |
| 20260507064731 | 51 | 86 | 0.9 | 4.3 | 0.00 | 0.00 | 0.00 | 80 | 1014.9 |
| 20260507064231 | 51 | 65 | 1.7 | 4.3 | 0.00 | 0.00 | 0.00 | 80 | 1014.9 |
| 20260507063731 | 51 | 72 | 1.7 | 4.3 | 0.00 | 0.00 | 0.00 | 80 | 1014.9 |
| 20260507063231 | 51 | 42 | 2.6 | 6.1 | 0.00 | 0.00 | 0.00 | 81 | 1015.0 |
| 20260507062729 | 51 | 57 | 2.6 | 6.1 | 0.00 | 0.00 | 0.00 | 82 | 1014.9 |
| 20260507062222 | 51 | 79 | 0.9 | 2.6 | 0.00 | 0.00 | 0.00 | 84 | 1014.9 |
| 20260507061723 | 51 | 353 | 0.0 | 1.7 | 0.00 | 0.00 | 0.00 | 87 | 1014.9 |
| 20260507061221 | 51 | 105 | 0.0 | 0.0 | 0.00 | 0.00 | 0.00 | 88 | 1014.8 |
| 20260507060222 | 50 | 105 | 0.0 | 0.0 | 0.00 | 0.00 | 0.00 | 89 | 1014.6 |
| 20260507055722 | 50 | 105 | 0.0 | 0.0 | 0.00 | 0.00 | 0.00 | 89 | 1014.6 |
| 20260507055223 | 49 | 105 | 0.0 | 0.0 | 0.00 | 0.00 | 0.00 | 90 | 1014.6 |
| 20260507054217 | 49 | 105 | 0.0 | 0.0 | 0.00 | 0.00 | 0.00 | 90 | 1014.5 |
| 20260507053719 | 49 | 105 | 0.0 | 0.0 | 0.00 | 0.00 | 0.00 | 90 | 1014.5 |
| 20260507052219 | 48 | 105 | 0.0 | 0.0 | 0.00 | 0.00 | 0.00 | 90 | 1014.5 |
| 20260507051726 | 48 | 105 | 0.0 | 0.0 | 0.00 | 0.00 | 0.00 | 90 | 1014.5 |
| 20260507050715 | 48 | 105 | 0.0 | 0.0 | 0.00 | 0.00 | 0.00 | 90 | 1014.5 |
| 20260507045713 | 48 | 105 | 0.0 | 0.0 | 0.00 | 0.00 | 0.00 | 90 | 1014.4 |
| 20260507045215 | 47 | 105 | 0.0 | 0.0 | 0.00 | 0.00 | 0.00 | 90 | 1014.3 |
| 20260507044714 | 47 | 105 | 0.0 | 0.0 | 0.00 | 0.00 | 0.00 | 90 | 1014.4 |
| 20260507044213 | 47 | 105 | 0.0 | 0.0 | 0.00 | 0.00 | 0.00 | 90 | 1014.3 |
| 20260507042900 | 47 | 105 | 0.0 | 0.0 | 0.00 | 0.00 | 0.00 | 89 | 1014.2 |
| 20260507042400 | 47 | 105 | 0.0 | 0.0 | 0.00 | 0.00 | 0.00 | 89 | 1014.1 |
| 20260507041900 | 47 | 105 | 0.0 | 0.0 | 0.00 | 0.00 | 0.00 | 89 | 1014.1 |
| 20260507041401 | 47 | 105 | 0.0 | 0.0 | 0.00 | 0.00 | 0.00 | 89 | 1014.1 |
| 20260507040356 | 47 | 105 | 0.0 | 1.7 | 0.00 | 0.00 | 0.00 | 89 | 1014.1 |
| 20260507035856 | 47 | 105 | 0.0 | 1.7 | 0.00 | 0.00 | 0.00 | 89 | 1014.1 |
| 20260507035355 | 47 | 105 | 0.0 | 0.0 | 0.00 | 0.00 | 0.00 | 89 | 1014.1 |
| 20260507034855 | 47 | 106 | 0.0 | 0.9 | 0.00 | 0.00 | 0.00 | 89 | 1014.1 |
| 20260507033849 | 47 | 82 | 0.0 | 0.0 | 0.00 | 0.00 | 0.00 | 88 | 1014.0 |
| 20260507033348 | 47 | 82 | 0.0 | 0.0 | 0.00 | 0.00 | 0.00 | 88 | 1014.0 |
| 20260507032846 | 47 | 82 | 0.0 | 0.0 | 0.00 | 0.00 | 0.00 | 89 | 1014.1 |
| 20260507032345 | 47 | 82 | 0.0 | 0.0 | 0.00 | 0.00 | 0.00 | 89 | 1014.0 |
| 20260507031843 | 47 | 82 | 0.0 | 0.0 | 0.00 | 0.00 | 0.00 | 88 | 1014.0 |
| 20260507031339 | 47 | 82 | 0.0 | 0.0 | 0.00 | 0.00 | 0.00 | 88 | 1014.0 |
| 20260507030835 | 47 | 82 | 0.0 | 0.0 | 0.00 | 0.00 | 0.00 | 88 | 1014.0 |
| 20260507030348 | 47 | 82 | 0.0 | 0.0 | 0.00 | 0.00 | 0.00 | 87 | 1014.0 |
| 20260507025833 | 47 | 82 | 0.0 | 0.0 | 0.00 | 0.00 | 0.00 | 87 | 1013.9 |
| 20260507024825 | 47 | 82 | 0.0 | 0.0 | 0.00 | 0.00 | 0.00 | 87 | 1013.9 |
| 20260507024323 | 48 | 82 | 0.0 | 0.0 | 0.00 | 0.00 | 0.00 | 86 | 1013.8 |
| 20260507023323 | 48 | 82 | 0.0 | 0.0 | 0.00 | 0.00 | 0.00 | 86 | 1013.8 |
| 20260507022824 | 48 | 82 | 0.0 | 0.0 | 0.00 | 0.00 | 0.00 | 86 | 1013.8 |
| 20260507022324 | 49 | 82 | 0.0 | 0.0 | 0.00 | 0.00 | 0.00 | 85 | 1013.8 |
| 20260507021831 | 49 | 82 | 0.0 | 0.0 | 0.00 | 0.00 | 0.00 | 85 | 1013.8 |
| 20260507021317 | 49 | 82 | 0.0 | 0.0 | 0.00 | 0.00 | 0.00 | 85 | 1013.8 |
| 20260507020817 | 49 | 82 | 0.0 | 0.0 | 0.00 | 0.00 | 0.00 | 84 | 1013.8 |
| 20260507020318 | 49 | 82 | 0.0 | 0.0 | 0.00 | 0.00 | 0.00 | 84 | 1013.8 |
| 20260507014825 | 50 | 82 | 0.0 | 2.6 | 0.00 | 0.01 | 0.00 | 84 | 1013.7 |
| 20260507014322 | 50 | 47 | 0.9 | 2.6 | 0.00 | 0.01 | 0.00 | 84 | 1013.7 |
| 20260507013315 | 50 | 51 | 0.9 | 2.6 | 0.00 | 0.01 | 0.00 | 84 | 1013.8 |
| 20260507012817 | 50 | 67 | 0.0 | 2.6 | 0.00 | 0.01 | 0.00 | 83 | 1013.7 |
| 20260507012317 | 50 | 53 | 0.9 | 3.5 | 0.00 | 0.01 | 0.00 | 83 | 1013.8 |
| 20260507011817 | 50 | 79 | 0.9 | 3.5 | 0.00 | 0.01 | 0.00 | 83 | 1013.8 |
| 20260507011314 | 50 | 53 | 0.9 | 3.5 | 0.00 | 0.01 | 0.00 | 83 | 1013.8 |
| 20260507010814 | 50 | 72 | 1.7 | 3.5 | 0.00 | 0.01 | 0.00 | 83 | 1013.8 |
| 20260507010310 | 50 | 55 | 1.7 | 4.3 | 0.00 | 0.01 | 0.00 | 83 | 1013.7 |
| 20260507005810 | 50 | 60 | 1.7 | 4.3 | 0.00 | 0.01 | 0.00 | 83 | 1013.7 |
| 20260507005308 | 50 | 45 | 1.7 | 4.3 | 0.00 | 0.01 | 0.00 | 83 | 1013.7 |
| 20260507004809 | 50 | 54 | 2.6 | 4.3 | 0.00 | 0.01 | 0.00 | 83 | 1013.7 |
| 20260507004308 | 50 | 54 | 1.7 | 4.3 | 0.00 | 0.01 | 0.00 | 83 | 1013.7 |
| 20260507003807 | 50 | 63 | 1.7 | 4.3 | 0.00 | 0.01 | 0.00 | 83 | 1013.6 |
| 20260507003302 | 50 | 53 | 0.9 | 3.5 | 0.00 | 0.01 | 0.00 | 83 | 1013.6 |
| 20260507002801 | 50 | 75 | 0.9 | 3.5 | 0.00 | 0.01 | 0.00 | 83 | 1013.6 |
| 20260507002258 | 50 | 54 | 1.7 | 4.3 | 0.00 | 0.01 | 0.00 | 83 | 1013.7 |
| 20260507001757 | 50 | 46 | 2.6 | 6.1 | 0.00 | 0.01 | 0.00 | 83 | 1013.7 |
| 20260507001256 | 50 | 59 | 2.6 | 6.1 | 0.00 | 0.01 | 0.00 | 83 | 1013.7 |
| 20260507000753 | 50 | 49 | 2.6 | 5.2 | 0.00 | 0.01 | 0.00 | 83 | 1013.7 |
| 20260507000252 | 50 | 70 | 2.6 | 5.2 | 0.00 | 0.01 | 0.00 | 83 | 1013.8 |
| 20260506235252 | 50 | 63 | 2.6 | 6.1 | 0.00 | 0.01 | 0.00 | 83 | 1013.8 |
| 20260506234752 | 50 | 56 | 2.6 | 4.3 | 0.00 | 0.01 | 0.00 | 83 | 1013.8 |
| 20260506234252 | 50 | 58 | 2.6 | 4.3 | 0.00 | 0.01 | 0.00 | 83 | 1013.7 |
| 20260506233751 | 50 | 71 | 1.7 | 5.2 | 0.00 | 0.01 | 0.00 | 83 | 1013.7 |
| 20260506233247 | 50 | 58 | 0.9 | 4.3 | 0.00 | 0.01 | 0.00 | 83 | 1013.6 |
| 20260506231748 | 50 | 58 | 1.7 | 4.3 | 0.00 | 0.01 | 0.00 | 83 | 1013.6 |
| 20260506231246 | 50 | 55 | 2.6 | 5.2 | 0.00 | 0.01 | 0.00 | 82 | 1013.6 |
| 20260506230746 | 50 | 61 | 2.6 | 5.2 | 0.00 | 0.01 | 0.00 | 82 | 1013.6 |
| 20260506225743 | 50 | 56 | 2.6 | 6.1 | 0.00 | 0.01 | 0.01 | 83 | 1013.7 |
| 20260506224744 | 50 | 67 | 1.7 | 4.3 | 0.00 | 0.01 | 0.01 | 83 | 1013.6 |
| 20260506224245 | 50 | 61 | 1.7 | 4.3 | 0.00 | 0.01 | 0.01 | 83 | 1013.6 |
| 20260506223744 | 50 | 65 | 2.6 | 6.1 | 0.00 | 0.01 | 0.01 | 82 | 1013.6 |
| 20260506223244 | 50 | 46 | 1.7 | 6.1 | 0.00 | 0.01 | 0.01 | 82 | 1013.5 |
| 20260506222741 | 50 | 49 | 1.7 | 3.5 | 0.00 | 0.01 | 0.01 | 82 | 1013.5 |
| 20260506222240 | 50 | 69 | 1.7 | 4.3 | 0.00 | 0.01 | 0.01 | 83 | 1013.5 |
| 20260506221739 | 50 | 30 | 1.7 | 4.3 | 0.00 | 0.01 | 0.01 | 83 | 1013.5 |
| 20260506221239 | 50 | 54 | 1.7 | 4.3 | 0.00 | 0.01 | 0.01 | 83 | 1013.5 |
| 20260506220738 | 50 | 56 | 1.7 | 4.3 | 0.00 | 0.01 | 0.01 | 83 | 1013.4 |
| 20260506220238 | 50 | 43 | 1.7 | 4.3 | 0.00 | 0.01 | 0.01 | 82 | 1013.4 |
| 20260506215731 | 50 | 69 | 0.9 | 3.5 | 0.00 | 0.01 | 0.01 | 82 | 1013.4 |
| 20260506215229 | 50 | 58 | 1.7 | 4.3 | 0.00 | 0.01 | 0.01 | 82 | 1013.3 |
| 20260506214728 | 50 | 63 | 2.6 | 4.3 | 0.00 | 0.01 | 0.01 | 82 | 1013.4 |
| 20260506214226 | 50 | 49 | 2.6 | 6.1 | 0.00 | 0.01 | 0.01 | 82 | 1013.3 |
| 20260506213726 | 50 | 44 | 3.5 | 6.1 | 0.00 | 0.01 | 0.01 | 82 | 1013.3 |
| 20260506213219 | 50 | 66 | 2.6 | 5.2 | 0.00 | 0.01 | 0.01 | 82 | 1013.3 |
| 20260506212720 | 50 | 54 | 3.5 | 7.8 | 0.00 | 0.01 | 0.01 | 82 | 1013.3 |
| 20260506212221 | 51 | 60 | 3.5 | 7.8 | 0.00 | 0.01 | 0.01 | 82 | 1013.3 |
| 20260506211720 | 51 | 59 | 3.5 | 7.0 | 0.00 | 0.01 | 0.01 | 82 | 1013.3 |
| 20260506211220 | 51 | 103 | 2.6 | 6.1 | 0.00 | 0.01 | 0.01 | 82 | 1013.3 |
| 20260506210720 | 51 | 46 | 2.6 | 7.0 | 0.00 | 0.01 | 0.01 | 82 | 1013.3 |
| 20260506210214 | 51 | 32 | 3.5 | 7.8 | 0.00 | 0.01 | 0.01 | 82 | 1013.2 |
| 20260506205714 | 51 | 6 | 3.5 | 7.8 | 0.00 | 0.01 | 0.01 | 82 | 1013.2 |
| 20260506204714 | 51 | 51 | 3.5 | 7.0 | 0.00 | 0.01 | 0.01 | 82 | 1013.2 |
| 20260506204214 | 51 | 61 | 3.5 | 7.0 | 0.00 | 0.01 | 0.01 | 82 | 1013.2 |
| 20260506203714 | 51 | 49 | 3.5 | 7.0 | 0.00 | 0.01 | 0.01 | 83 | 1013.1 |
| 20260506203209 | 51 | 67 | 3.5 | 7.0 | 0.00 | 0.01 | 0.01 | 82 | 1013.1 |
| 20260506202707 | 51 | 37 | 3.5 | 7.0 | 0.00 | 0.01 | 0.01 | 82 | 1013.0 |
| 20260506201708 | 51 | 54 | 3.5 | 7.8 | 0.00 | 0.01 | 0.01 | 82 | 1013.0 |
| 20260506200200 | 51 | 64 | 2.6 | 7.0 | 0.00 | 0.01 | 0.01 | 81 | 1012.9 |
| 20260506195702 | 51 | 59 | 3.5 | 7.0 | 0.00 | 0.01 | 0.01 | 81 | 1012.9 |
| 20260506195202 | 51 | 45 | 3.5 | 6.1 | 0.00 | 0.01 | 0.01 | 82 | 1012.8 |
| 20260506194703 | 51 | 67 | 3.5 | 6.1 | 0.00 | 0.01 | 0.01 | 81 | 1012.7 |
| 20260506194202 | 51 | 63 | 3.5 | 6.1 | 0.00 | 0.01 | 0.01 | 81 | 1012.7 |
| 20260506193715 | 51 | 69 | 3.5 | 6.1 | 0.00 | 0.01 | 0.01 | 82 | 1012.6 |
| 20260506193155 | 51 | 62 | 3.5 | 7.0 | 0.00 | 0.01 | 0.01 | 83 | 1012.6 |
| 20260506192656 | 51 | 35 | 3.5 | 7.0 | 0.00 | 0.01 | 0.01 | 83 | 1012.5 |
| 20260506192156 | 51 | 68 | 3.5 | 6.1 | 0.00 | 0.01 | 0.01 | 83 | 1012.5 |
| 20260506191656 | 51 | 82 | 3.5 | 5.2 | 0.00 | 0.01 | 0.01 | 83 | 1012.5 |
| 20260506190656 | 51 | 56 | 2.6 | 6.1 | 0.00 | 0.01 | 0.01 | 83 | 1012.3 |
| 20260506185153 | 51 | 49 | 2.6 | 5.2 | 0.00 | 0.01 | 0.01 | 83 | 1012.2 |
| 20260506184706 | 51 | 98 | 2.6 | 5.2 | 0.00 | 0.01 | 0.01 | 83 | 1012.2 |
| 20260506184153 | 51 | 63 | 2.6 | 5.2 | 0.00 | 0.01 | 0.01 | 81 | 1012.2 |
| 20260506183653 | 51 | 89 | 2.6 | 5.2 | 0.00 | 0.01 | 0.01 | 81 | 1012.2 |
| 20260506183154 | 51 | 72 | 2.6 | 5.2 | 0.00 | 0.01 | 0.01 | 82 | 1012.2 |
| 20260506182648 | 51 | 62 | 2.6 | 5.2 | 0.00 | 0.01 | 0.01 | 82 | 1012.1 |
| 20260506181648 | 52 | 60 | 2.6 | 5.2 | 0.00 | 0.01 | 0.01 | 82 | 1012.0 |
| 20260506181148 | 52 | 56 | 2.6 | 6.1 | 0.00 | 0.01 | 0.01 | 82 | 1011.9 |
| 20260506180645 | 52 | 41 | 2.6 | 6.1 | 0.00 | 0.01 | 0.01 | 82 | 1011.9 |
| 20260506180144 | 52 | 58 | 2.6 | 5.2 | 0.00 | 0.01 | 0.01 | 82 | 1011.8 |
| 20260506175643 | 52 | 90 | 2.6 | 6.1 | 0.00 | 0.01 | 0.01 | 82 | 1011.8 |
| 20260506175145 | 52 | 48 | 2.6 | 6.1 | 0.00 | 0.01 | 0.01 | 82 | 1011.8 |
| 20260506174639 | 52 | 44 | 2.6 | 5.2 | 0.00 | 0.01 | 0.01 | 81 | 1011.7 |
| 20260506174136 | 52 | 60 | 1.7 | 5.2 | 0.00 | 0.01 | 0.01 | 81 | 1011.7 |
| 20260506173630 | 52 | 58 | 1.7 | 5.2 | 0.00 | 0.01 | 0.01 | 80 | 1011.6 |
| 20260506173128 | 52 | 65 | 2.6 | 5.2 | 0.00 | 0.01 | 0.01 | 80 | 1011.7 |
| 20260506172622 | 52 | 68 | 2.6 | 6.1 | 0.00 | 0.01 | 0.01 | 80 | 1011.7 |
| 20260506172119 | 52 | 68 | 2.6 | 6.1 | 0.00 | 0.01 | 0.01 | 79 | 1011.6 |
| 20260506171613 | 52 | 42 | 1.7 | 5.2 | 0.00 | 0.01 | 0.01 | 79 | 1011.6 |
| 20260506171112 | 52 | 62 | 2.6 | 6.1 | 0.00 | 0.01 | 0.01 | 80 | 1011.6 |
| 20260506170112 | 52 | 75 | 2.6 | 6.1 | 0.00 | 0.01 | 0.01 | 79 | 1011.6 |
| 20260506165608 | 52 | 73 | 2.6 | 6.1 | 0.00 | 0.01 | 0.01 | 80 | 1011.6 |
| 20260506165108 | 52 | 66 | 1.7 | 5.2 | 0.00 | 0.01 | 0.01 | 81 | 1011.6 |
| 20260506164607 | 52 | 48 | 1.7 | 5.2 | 0.00 | 0.01 | 0.01 | 81 | 1011.6 |
| 20260506164109 | 52 | 70 | 1.7 | 5.2 | 0.00 | 0.01 | 0.01 | 81 | 1011.6 |
| 20260506163608 | 52 | 349 | 1.7 | 6.1 | 0.00 | 0.01 | 0.01 | 81 | 1011.6 |
| 20260506163103 | 52 | 60 | 1.7 | 6.1 | 0.00 | 0.01 | 0.01 | 80 | 1011.7 |
| 20260506162603 | 52 | 55 | 2.6 | 6.1 | 0.00 | 0.01 | 0.01 | 82 | 1011.6 |
| 20260506162111 | 52 | 64 | 2.6 | 6.1 | 0.00 | 0.01 | 0.01 | 82 | 1011.6 |
| 20260506161604 | 52 | 18 | 2.6 | 5.2 | 0.00 | 0.01 | 0.01 | 82 | 1011.6 |
| 20260506161112 | 52 | 44 | 2.6 | 5.2 | 0.00 | 0.01 | 0.01 | 82 | 1011.6 |
| 20260506160111 | 52 | 27 | 2.6 | 6.1 | 0.00 | 0.01 | 0.01 | 82 | 1011.6 |
| 20260506155559 | 52 | 23 | 2.6 | 6.1 | 0.00 | 0.01 | 0.01 | 83 | 1011.6 |
| 20260506155100 | 52 | 77 | 2.6 | 4.3 | 0.00 | 0.01 | 0.01 | 83 | 1011.6 |
| 20260506154600 | 52 | 50 | 2.6 | 5.2 | 0.00 | 0.01 | 0.01 | 83 | 1011.5 |
| 20260506154100 | 52 | 66 | 1.7 | 5.2 | 0.00 | 0.01 | 0.01 | 83 | 1011.6 |
| 20260506153601 | 52 | 98 | 1.7 | 6.1 | 0.00 | 0.01 | 0.01 | 83 | 1011.6 |
| 20260506153055 | 52 | 40 | 2.6 | 6.1 | 0.01 | 0.01 | 0.01 | 83 | 1011.5 |
| 20260506152557 | 52 | 71 | 2.6 | 6.1 | 0.01 | 0.01 | 0.01 | 83 | 1011.5 |
| 20260506152056 | 51 | 31 | 2.6 | 6.1 | 0.01 | 0.01 | 0.01 | 84 | 1011.5 |
| 20260506151556 | 52 | 75 | 2.6 | 5.2 | 0.01 | 0.01 | 0.01 | 85 | 1011.5 |
| 20260506151055 | 51 | 62 | 2.6 | 5.2 | 0.01 | 0.01 | 0.01 | 84 | 1011.4 |
| 20260506150555 | 51 | 68 | 2.6 | 6.1 | 0.01 | 0.01 | 0.01 | 85 | 1011.4 |
| 20260506150059 | 51 | 12 | 2.6 | 7.0 | 0.01 | 0.01 | 0.01 | 86 | 1011.4 |
| 20260506144050 | 51 | 27 | 2.6 | 6.1 | 0.01 | 0.01 | 0.01 | 88 | 1011.4 |
| 20260506143543 | 51 | 44 | 3.5 | 7.0 | 0.01 | 0.01 | 0.01 | 87 | 1011.5 |
| 20260506143041 | 52 | 62 | 3.5 | 7.0 | 0.00 | 0.00 | 0.00 | 86 | 1011.5 |
| 20260506142541 | 52 | 71 | 2.6 | 8.7 | 0.00 | 0.00 | 0.00 | 86 | 1011.4 |
| 20260506141539 | 52 | 67 | 3.5 | 8.7 | 0.00 | 0.00 | 0.00 | 83 | 1011.4 |
| 20260506140535 | 53 | 332 | 3.5 | 2.6 | 0.00 | 0.00 | 0.00 | 82 | 1011.3 |
| 20260506134704 | 53 | 105 | 4.3 | 9.6 | 0.00 | 0.00 | 0.00 | 81 | 1011.4 |
| 20260506134205 | 54 | 68 | 3.5 | 9.6 | 0.00 | 0.00 | 0.00 | 79 | 1011.4 |
| 20260506133704 | 54 | 31 | 2.6 | 7.0 | 0.00 | 0.00 | 0.00 | 78 | 1011.3 |
| 20260506132206 | 54 | 62 | 2.6 | 7.0 | 0.00 | 0.00 | 0.00 | 75 | 1011.2 |
| 20260506130700 | 55 | 51 | 3.5 | 8.7 | 0.00 | 0.00 | 0.00 | 74 | 1011.3 |
| 20260506125659 | 56 | 65 | 2.6 | 7.0 | 0.00 | 0.00 | 0.00 | 71 | 1011.2 |
| 20260506125200 | 56 | 59 | 2.6 | 7.0 | 0.00 | 0.00 | 0.00 | 70 | 1011.2 |
| 20260506124700 | 56 | 33 | 2.6 | 7.0 | 0.00 | 0.00 | 0.00 | 71 | 1011.2 |
| 20260506124158 | 56 | 7 | 2.6 | 7.0 | 0.00 | 0.00 | 0.00 | 70 | 1011.2 |
| 20260506123658 | 56 | 56 | 2.6 | 6.1 | 0.00 | 0.00 | 0.00 | 70 | 1011.1 |
| 20260506123154 | 57 | 56 | 1.7 | 6.1 | 0.00 | 0.00 | 0.00 | 69 | 1011.2 |
| 20260506122656 | 57 | 84 | 1.7 | 6.1 | 0.00 | 0.00 | 0.00 | 71 | 1011.2 |
| 20260506122153 | 56 | 82 | 1.7 | 6.1 | 0.00 | 0.00 | 0.00 | 69 | 1011.2 |
| 20260506121150 | 56 | 269 | 1.7 | 5.2 | 0.00 | 0.00 | 0.00 | 71 | 1011.1 |
| 20260506120651 | 56 | 85 | 1.7 | 4.3 | 0.00 | 0.00 | 0.00 | 71 | 1011.1 |
| 20260506120144 | 56 | 276 | 1.7 | 4.3 | 0.00 | 0.00 | 0.00 | 72 | 1011.1 |
| 20260506115644 | 55 | 251 | 0.9 | 5.2 | 0.00 | 0.00 | 0.00 | 73 | 1011.1 |
| 20260506115145 | 55 | 307 | 0.9 | 5.2 | 0.00 | 0.00 | 0.00 | 73 | 1011.2 |
| 20260506114644 | 55 | 37 | 1.7 | 5.2 | 0.00 | 0.00 | 0.00 | 74 | 1011.2 |
| 20260506114145 | 54 | 357 | 2.6 | 5.2 | 0.00 | 0.00 | 0.00 | 74 | 1011.2 |
| 20260506113145 | 54 | 50 | 1.7 | 6.1 | 0.00 | 0.00 | 0.00 | 74 | 1011.1 |
| 20260506112641 | 54 | 44 | 1.7 | 5.2 | 0.00 | 0.00 | 0.00 | 74 | 1011.2 |
| 20260506112141 | 54 | 90 | 1.7 | 5.2 | 0.00 | 0.00 | 0.00 | 74 | 1011.2 |
| 20260506111638 | 54 | 9 | 1.7 | 5.2 | 0.00 | 0.00 | 0.00 | 75 | 1011.2 |
| 20260506111139 | 54 | 77 | 1.7 | 2.6 | 0.00 | 0.00 | 0.00 | 75 | 1011.2 |
| 20260506105714 | 54 | 297 | 2.6 | 7.8 | 0.00 | 0.00 | 0.00 | 74 | 1011.2 |
| 20260506105214 | 54 | 25 | 2.6 | 7.8 | 0.00 | 0.00 | 0.00 | 74 | 1011.2 |
| 20260506104715 | 54 | 67 | 2.6 | 5.2 | 0.00 | 0.00 | 0.00 | 74 | 1011.2 |
| 20260506104213 | 55 | 20 | 2.6 | 7.8 | 0.00 | 0.00 | 0.00 | 74 | 1011.2 |
| 20260506103713 | 55 | 34 | 3.5 | 8.7 | 0.00 | 0.00 | 0.00 | 73 | 1011.2 |
| 20260506103207 | 55 | 47 | 2.6 | 8.7 | 0.00 | 0.00 | 0.00 | 72 | 1011.3 |
| 20260506102707 | 55 | 39 | 3.5 | 7.8 | 0.00 | 0.00 | 0.00 | 73 | 1011.3 |
| 20260506102207 | 55 | 321 | 3.5 | 9.6 | 0.00 | 0.00 | 0.00 | 74 | 1011.2 |
| 20260506101707 | 55 | 47 | 3.5 | 9.6 | 0.00 | 0.00 | 0.00 | 73 | 1011.2 |
| 20260506100214 | 54 | 80 | 3.5 | 8.7 | 0.00 | 0.00 | 0.00 | 75 | 1011.2 |
| 20260506095659 | 54 | 30 | 2.6 | 8.7 | 0.00 | 0.00 | 0.00 | 77 | 1011.1 |
| 20260506095201 | 53 | 330 | 2.6 | 7.0 | 0.00 | 0.00 | 0.00 | 77 | 1011.1 |
| 20260506094701 | 53 | 355 | 2.6 | 6.1 | 0.00 | 0.00 | 0.00 | 78 | 1011.2 |
| 20260506093700 | 52 | 79 | 2.6 | 6.1 | 0.00 | 0.00 | 0.00 | 79 | 1011.2 |
| 20260506093157 | 52 | 80 | 2.6 | 10.4 | 0.00 | 0.00 | 0.00 | 80 | 1011.2 |
| 20260506092657 | 52 | 61 | 2.6 | 10.4 | 0.00 | 0.00 | 0.00 | 80 | 1011.2 |
| 20260506092156 | 52 | 64 | 2.6 | 8.7 | 0.00 | 0.00 | 0.00 | 79 | 1011.1 |
| 20260506091656 | 52 | 5 | 2.6 | 9.6 | 0.00 | 0.00 | 0.00 | 80 | 1011.1 |
| 20260506090657 | 52 | 237 | 2.6 | 7.0 | 0.00 | 0.00 | 0.00 | 82 | 1011.0 |
| 20260506085650 | 51 | 261 | 2.6 | 7.0 | 0.00 | 0.00 | 0.00 | 82 | 1010.9 |
| 20260506085151 | 51 | 158 | 1.7 | 7.0 | 0.00 | 0.00 | 0.00 | 82 | 1010.9 |
| 20260506084151 | 51 | 345 | 2.6 | 9.6 | 0.00 | 0.00 | 0.00 | 82 | 1010.9 |
| 20260506083650 | 51 | 162 | 2.6 | 9.6 | 0.00 | 0.00 | 0.00 | 82 | 1010.9 |
| 20260506082648 | 51 | 20 | 2.6 | 7.0 | 0.00 | 0.00 | 0.00 | 83 | 1010.8 |
| 20260506082149 | 51 | 339 | 1.7 | 7.0 | 0.00 | 0.00 | 0.00 | 83 | 1010.8 |
| 20260506081649 | 51 | 124 | 1.7 | 7.8 | 0.00 | 0.00 | 0.00 | 83 | 1010.8 |
| 20260506081147 | 51 | 34 | 1.7 | 8.7 | 0.00 | 0.00 | 0.00 | 84 | 1010.9 |
| 20260506080649 | 51 | 47 | 1.7 | 8.7 | 0.00 | 0.00 | 0.00 | 84 | 1010.9 |
| 20260506080146 | 51 | 20 | 1.7 | 7.8 | 0.00 | 0.00 | 0.00 | 84 | 1010.8 |
| 20260506073137 | 50 | 296 | 1.7 | 7.0 | 0.00 | 0.00 | 0.00 | 85 | 1010.7 |
| 20260506072631 | 50 | 265 | 1.7 | 8.7 | 0.00 | 0.00 | 0.00 | 85 | 1010.7 |
| 20260506072127 | 50 | 261 | 2.6 | 8.7 | 0.00 | 0.00 | 0.00 | 85 | 1010.6 |
| 20260506071629 | 50 | 272 | 2.6 | 7.0 | 0.00 | 0.00 | 0.00 | 84 | 1010.5 |
| 20260506070627 | 51 | 274 | 1.7 | 6.1 | 0.00 | 0.00 | 0.00 | 84 | 1010.5 |